TimeMST,TemperatureF,Dew PointF,Humidity,Sea Level PressureIn,VisibilityMPH,Wind Direction,Wind SpeedMPH,Gust SpeedMPH,PrecipitationIn,Events,Conditions,WindDirDegrees,DateUTC
12:53 AM,26.1,19.9,78,30.14,10.0,SE,4.6,-,N/A,,Clear,130,2012-12-02 07:53:00
1:53 AM,27.0,19.9,75,30.12,10.0,Calm,Calm,-,N/A,,Clear,0,2012-12-02 08:53:00
2:53 AM,24.1,18.0,77,30.13,10.0,Calm,Calm,-,N/A,,Clear,0,2012-12-02 09:53:00
3:53 AM,24.1,18.0,77,30.12,10.0,Calm,Calm,-,N/A,,Clear,0,2012-12-02 10:53:00
4:53 AM,25.0,19.0,78,30.13,10.0,ENE,3.5,-,N/A,,Clear,70,2012-12-02 11:53:00
5:53 AM,24.1,18.0,77,30.18,10.0,Calm,Calm,-,N/A,,Clear,0,2012-12-02 12:53:00
6:53 AM,26.1,19.0,75,30.18,10.0,Calm,Calm,-,N/A,,Clear,0,2012-12-02 13:53:00
7:53 AM,26.1,19.9,78,30.22,10.0,NE,5.8,-,N/A,,Clear,50,2012-12-02 14:53:00
8:53 AM,39.9,26.1,58,30.16,10.0,ENE,3.5,-,N/A,,Clear,70,2012-12-02 15:53:00
9:53 AM,46.9,27.0,46,30.15,10.0,Calm,Calm,-,N/A,,Clear,0,2012-12-02 16:53:00
10:53 AM,57.0,24.1,28,30.09,10.0,South,8.1,-,N/A,,Clear,170,2012-12-02 17:53:00
11:53 AM,57.0,24.1,28,30.06,10.0,SW,12.7,-,N/A,,Clear,230,2012-12-02 18:53:00
12:53 PM,57.9,19.9,23,30.04,10.0,SW,13.8,20.7,N/A,,Clear,220,2012-12-02 19:53:00
1:53 PM,57.0,19.0,23,30.01,10.0,SW,10.4,21.9,N/A,,Clear,220,2012-12-02 20:53:00
2:53 PM,57.9,19.0,22,29.99,10.0,WSW,6.9,-,N/A,,Clear,250,2012-12-02 21:53:00
3:53 PM,55.9,19.0,24,29.99,10.0,SW,6.9,-,N/A,,Clear,230,2012-12-02 22:53:00
4:53 PM,46.9,19.0,33,30.03,10.0,South,5.8,-,N/A,,Clear,180,2012-12-02 23:53:00
5:53 PM,44.1,19.0,37,30.06,10.0,Calm,Calm,-,N/A,,Clear,0,2012-12-03 00:53:00
6:53 PM,37.9,18.0,45,30.07,10.0,ENE,8.1,-,N/A,,Clear,60,2012-12-03 01:53:00
7:53 PM,37.0,18.0,46,30.06,10.0,East,5.8,-,N/A,,Partly Cloudy,80,2012-12-03 02:53:00
8:53 PM,36.0,18.0,48,30.01,10.0,Calm,Calm,-,N/A,,Scattered Clouds,0,2012-12-03 03:53:00
9:53 PM,37.9,19.9,48,29.98,10.0,ESE,5.8,-,N/A,,Mostly Cloudy,110,2012-12-03 04:53:00
10:53 PM,37.9,21.0,51,29.95,10.0,Calm,Calm,-,N/A,,Partly Cloudy,0,2012-12-03 05:53:00
11:53 PM,37.0,21.0,52,29.95,10.0,Calm,Calm,-,N/A,,Clear,0,2012-12-03 06:53:00